Antonio B. Won Pat International Airport


Codes: PGUM/GUM
Name: Antonio B. Won Pat International Airport
City: Hagatna, Guam International Airport
Country: Guam
Elevation: 298 ft.
Website:
Wikipedia:

Photos at Antonio B. Won Pat International Airport


   Photos courtesy of SpottingLog. You can add your own sightings and photos by signing up for a free trial today.



HL7561, 03-Dec-2015
© Tomo-Papa

HL8294, 03-Dec-2015
© Tomo-Papa

N37298, 03-Dec-2015
© Tomo-Papa

N25201, 03-Dec-2015
© Tomo-Papa

JA613J, 03-Dec-2015
© Tomo-Papa

HL8263, 03-Dec-2015
© Tomo-Papa

N24236, 03-Dec-2015
© Tomo-Papa


Weather at Antonio B. Won Pat International Airport


Time (UTC)DescriptionTempratureWindCloud coverageVisibilityPressureHumidity
23-May-2024 21:00Light Rain26°C16 mph, E20%10000m1011hPa97%
24-May-2024 00:00Light Rain27°C16 mph, E45%10000m1011hPa91%
24-May-2024 03:00Light Rain28°C18 mph, E73%10000m1011hPa83%
24-May-2024 06:00Light Rain29°C16 mph, E100%10000m1009hPa78%
24-May-2024 09:00Light Rain28°C13 mph, E99%10000m1011hPa85%
24-May-2024 12:00Light Rain28°C13 mph, E98%10000m1012hPa85%
24-May-2024 15:00Light Rain27°C13 mph, E100%10000m1012hPa84%
24-May-2024 18:00Light Rain27°C16 mph, E100%10000m1011hPa83%
24-May-2024 21:00Broken Clouds28°C13 mph, E76%10000m1012hPa78%
25-May-2024 00:00Overcast Clouds29°C13 mph, E86%10000m1013hPa70%
25-May-2024 03:00Overcast Clouds30°C16 mph, E99%10000m1011hPa67%
25-May-2024 06:00Overcast Clouds29°C13 mph, E86%10000m1010hPa70%
25-May-2024 09:00Overcast Clouds27°C11 mph, E100%10000m1012hPa77%
25-May-2024 12:00Overcast Clouds27°C11 mph, E100%10000m1013hPa78%
25-May-2024 15:00Overcast Clouds27°C11 mph, E100%10000m1012hPa79%
25-May-2024 18:00Overcast Clouds27°C11 mph, E99%10000m1011hPa78%
25-May-2024 21:00Overcast Clouds27°C11 mph, E91%10000m1012hPa77%
26-May-2024 00:00Broken Clouds29°C13 mph, E72%10000m1013hPa66%
26-May-2024 03:00Broken Clouds30°C13 mph, E55%10000m1011hPa62%
26-May-2024 06:00Broken Clouds29°C11 mph, E54%10000m1010hPa67%
26-May-2024 09:00Scattered Clouds27°C11 mph, E36%10000m1011hPa78%
26-May-2024 12:00Broken Clouds27°C11 mph, E64%10000m1012hPa83%
26-May-2024 15:00Light Rain27°C11 mph, E80%10000m1011hPa82%
26-May-2024 18:00Broken Clouds27°C11 mph, NE61%10000m1010hPa82%
26-May-2024 21:00Broken Clouds28°C13 mph, E65%10000m1012hPa79%
27-May-2024 00:00Broken Clouds29°C16 mph, E74%10000m1011hPa70%
27-May-2024 03:00Overcast Clouds30°C16 mph, E85%10000m1010hPa70%
27-May-2024 06:00Broken Clouds29°C16 mph, E73%10000m1009hPa73%
27-May-2024 09:00Broken Clouds28°C13 mph, E74%10000m1010hPa81%
27-May-2024 12:00Broken Clouds27°C11 mph, E81%10000m1012hPa82%
27-May-2024 15:00Overcast Clouds27°C11 mph, E100%10000m1010hPa82%
27-May-2024 18:00Overcast Clouds27°C13 mph, E92%10000m1010hPa80%
27-May-2024 21:00Broken Clouds28°C13 mph, E60%10000m1011hPa76%
28-May-2024 00:00Broken Clouds29°C16 mph, E68%10000m1011hPa71%
28-May-2024 03:00Broken Clouds30°C13 mph, E83%10000m1010hPa68%
28-May-2024 06:00Overcast Clouds30°C16 mph, E87%10000m1009hPa71%
28-May-2024 09:00Overcast Clouds28°C13 mph, E100%10000m1011hPa83%
28-May-2024 12:00Overcast Clouds28°C13 mph, E100%10000m1012hPa85%
28-May-2024 15:00Overcast Clouds27°C13 mph, E100%10000m1011hPa85%
28-May-2024 18:00Overcast Clouds27°C13 mph, E100%10000m1010hPa84%